Regional Weather Roundup
Issued by NWS Sioux Falls, SD

Home | Current Version | Previous Version | Text Only | Print | Product List | Glossary On
Versions: 1 2 3 4 5 6 7 8 9 10 11 12 13 14 15 16 17 18 19 20 21 22 23 24 25 26 27 28 29 30 31 32 33 34 35 36 37 38 39 40 41 42 43 44 45 46 47 48 49 50
000
ASUS43 KFSD 262310
RWRFSD

WEATHER ROUNDUP FOR SE SOUTH DAKOTA/SW MINNESOTA/NW IOWA
NATIONAL WEATHER SERVICE SIOUX FALLS SD
500 PM CST THU FEB 26 2015

NOTE: "FAIR" INDICATES FEW OR NO CLOUDS BELOW 12,000 FEET WITH NO
SIGNIFICANT WEATHER AND OR OBSTRUCTIONS TO VISIBILITY.


SDZ038>040-050-052>070-270000-
SOUTHEAST SOUTH DAKOTA

CITY           SKY/WX    TMP DP  RH WIND       PRES   REMARKS
CHAMBERLAIN    SUNNY     11  -6  47 N12       30.51S WCI  -4
HURON          SUNNY      5  -7  57 N12       30.55R WCI -11
MADISON        FLURRIES   1  -4  78 NW18      30.46S WCI -19
MITCHELL       SUNNY      8  -4  58 N16       30.55S WCI -10
SIOUX FALLS    MOSUNNY    4  -5  66 NW14      30.49S WCI -14
WINNER         FAIR      13  -6  42 N12       30.48S WCI  -1
YANKTON        SUNNY     10  -4  52 NW10      30.53S WCI  -3
$$

MNZ071-072-080-081-089-090-097-098-270000-
SOUTHWEST MINNESOTA

CITY           SKY/WX    TMP DP  RH WIND       PRES   REMARKS
FAIRMONT       CLOUDY     1  -6  71 NW13      30.44S WCI -16
JACKSON        PTSUNNY    3  -4  72 NW17      30.44S HAZE    WCI -17
LUVERNE        SUNNY      5  -4  66 N12G17    30.48S WCI -11
MARSHALL       PTSUNNY    1  -6  71 NW17      30.51R WCI -19
MONTEVIDEO     SUNNY      3  -6  66 N12       30.52S WCI -13
PIPESTONE      SUNNY      1  -6  71 N12G22    30.44S WCI -15
REDWOOD FALLS  CLOUDY     3  -5  69 NW13G22   30.49S HAZE    WCI -14
TRACY          PTSUNNY    2  -5  72 NW14      30.48S HAZE    WCI -16
WINDOM         MOSUNNY    1  -8  66 NW17      30.45S WCI -19
WORTHINGTON    MOSUNNY   30  -9  17 N14       30.45F WCI  20
$$

IAZ001>003-012>014-020>022-031-032-NEZ013-014-SDZ071-270000-
NORTHWEST IOWA

CITY           SKY/WX    TMP DP  RH WIND       PRES   REMARKS
CHEROKEE       SUNNY      4  -4  67 NW13      30.50R WCI -12
DENISON        MOSUNNY    5  -6  61 N12G17    30.48R WCI -11
ESTHERVILLE    PTSUNNY    2  -6  69 N15       30.46R WCI -17
LE MARS        CLOUDY     7  -2  66 NW13      30.52R WCI  -9
ORANGE CITY    SUNNY      7  -4  61 N10       30.48R WCI  -8
SHELDON        PTSUNNY    3  -6  66 N15       30.46S WCI -15
SIOUX CITY     CLOUDY    11   0  61 NW18G26   30.52S WCI  -7
SPENCER        MOSUNNY    5  -5  63 NW14      30.47R WCI -12
STORM LAKE     PTSUNNY    3  -4  72 NW14      30.46S WCI -15
$$

ABBREVIATIONS USED IN REMARKS
   TC - TEMPERATURE IN CELSIUS
  WCI - WIND CHILL INDEX
   HX - HEAT INDEX
  VSB - VISIBILITY



USA.gov is the U.S. government's official web portal to all federal, state and local government web resources and services.